STARLINK-11510, 62516

Orbit data source: Space-Track

STARLINK-11510, 62516 is a payload satellite owned by SpaceX/Seattle (US) in LEO that was launched on Wed, 08 Jan 2025 UTC via an FALCON 9 launch vehicle from the Air Force Eastern Test Range (AFETR). Payloads include a variety of satellites, spacecraft, and rockets equipped with specific instruments for various scientific and technological missions. These include communications satellites like Starlink; space stations such as the ISS; scientific satellites like the Hubble; Earth observation satellites from companies like Planet Labs, Umbra, and HawkEye 360; GPS; miniature CubeSats for education and research; and military/defense satellites.

Loading next visibility...
STARLINK-11510 details
Identifier
62516, 2025-004F
Orbit
LEO
Last TLE update1 day ago
Origin
Flag of USSpaceX/Seattle (US)
ManufacturerSpaceX/Seattle
MissionOperational spacecraft
Bus & MotorSTARLINK V2M, Unknown motor
Mass730 kg wet, ~700 kg dry
Launch date (UTC)
2025-01-08 (1 month ago)
Launch vehicle
FALCON 9
Launch site
Air Force Eastern Test Range (AFETR)
Object type
Payload
Rocket body
Debris
Shape & HBRUnknown
Radar Cross SectionLarge (>1 m²)

Expand to show TLE details & history

TLE from 1 day ago
0 STARLINK-11510
1 62516U 25004F   25035.12463482  .00004456  00000-0  28459-4 0  9997
2 62516  42.9978 314.1458 0001843 273.5441  86.5218 15.77853840  4517
Epoch: 2025-02-04T02:59Z
Definitive object data (Epoch: 2025-02-04T02:59:28.448Z)
Latitude-0.00004°
Longitude134.7428°
Altitude336.218 km
Speed7.709 km/s
True Right ascension20h 56m 34s
True Declination0° 00' 00"
Sunlit
Object was in daylight at TLE epoch
Visualization TLE readout
Latitude17.82902°
Longitude-72.42366°
Altitude336.436 km
Speed7.71 km/s
Apparent Right ascension03h 55m 17s
Apparent Declination-33° 00' 09"
Sunlit
Object is in full shadow
Visualization observer readout
Local Sidereal Time09:01:17
Azimuth236.322° WSW
Elevation-11.497°
Doppler factor1
Orbital elements
Apogee altitude339.748 km
Perigee altitude337.272 km
Semi-major axis6,716.647 km
Eccentricity0.0001843
Inclination42.9978°
RAAN314.1458°
Arg. of periapsis273.5441°
True anomaly86.54288°
Mean anomaly86.5218°
Eccentric anomaly86.53234°
Mean motion3.94289 °/min
BSTAR0.000028459
Orbital period91.3 mins
Loading maneuver chart data...
Loading historical data...
Loading historical data...
Loading historical data...
Loading historical data...
Loading historical data...
Loading historical data...
Loading historical data...

STARLINK-11510 Visibility forecast

Observer location: undefined°, undefined

Span
Click to sort rows by Start time (UTC) header in descending order
Start Az.
Max El. time (UTC)
Max El. Az.
Max El.
End time (UTC)
End Az.
4 mins2025-02-05 21:46:01.291Z226.823° WSW2025-02-05 21:48:01.291Z139.12° SSE37.165°2025-02-05 21:50:01.291Z81.674° E
4 mins2025-02-05 23:22:01.291Z286.817° WNW2025-02-05 23:24:01.291Z27.645° NE33.195°2025-02-05 23:26:01.291Z67.241° ENE
4 mins2025-02-06 00:58:01.291Z302.984° NW2025-02-06 00:59:01.291Z336.222° NNW35.502°2025-02-06 01:02:01.291Z87.108° E
|